BG9VZ-13 Weather Reports


Display with metric or nautical units.
time (UTC)temp
F
wind
direction
speed
MPH
gust
MPH
rain 1hr
in
rain 24hr
in
rain mn
in
humidity
%
barometer
mb
20240717094617 81 0 0.0 0.0 0.00 0.00 0.00 40 770.6
20240717093617 81 0 0.0 0.0 0.00 0.00 0.00 40 770.5
20240717092617 79 0 0.0 0.0 0.00 0.00 0.00 44 770.6
20240717091617 81 0 0.0 0.0 0.00 0.00 0.00 41 770.6
20240717090617 81 0 0.0 0.0 0.00 0.00 0.00 40 770.8
20240717085617 81 0 0.0 0.0 0.00 0.00 0.00 39 770.7
20240717084617 81 0 0.0 0.0 0.00 0.00 0.00 40 770.8
20240717083617 80 0 0.0 0.0 0.00 0.00 0.00 43 770.8
20240717082618 79 0 0.0 0.0 0.00 0.00 0.00 45 770.9
20240717081618 80 0 0.0 0.0 0.00 0.00 0.00 43 771.0
20240717080618 80 0 0.0 0.0 0.00 0.00 0.00 43 771.2
20240717075618 80 0 0.0 0.0 0.00 0.00 0.00 43 771.3
20240717074618 79 0 0.0 0.0 0.00 0.00 0.00 51 771.5
20240717073618 79 0 0.0 0.0 0.00 0.00 0.00 46 771.6
20240717072618 80 0 0.0 0.0 0.00 0.00 0.00 45 771.7
20240717071618 79 0 0.0 0.0 0.00 0.00 0.00 47 771.8
20240717070619 79 0 0.0 0.0 0.00 0.00 0.00 47 772.1
20240717065619 79 0 0.0 0.0 0.00 0.00 0.00 45 772.3
20240717064619 79 0 0.0 0.0 0.00 0.00 0.00 44 772.4
20240717063619 79 0 0.0 0.0 0.00 0.00 0.00 46 772.6
20240717062619 80 0 0.0 0.0 0.00 0.00 0.00 45 772.6
20240717061619 79 0 0.0 0.0 0.00 0.00 0.00 44 772.8
20240717060619 80 0 0.0 0.0 0.00 0.00 0.00 42 773.0
20240717055620 79 0 0.0 0.0 0.00 0.00 0.00 44 773.1
20240717054620 78 0 0.0 0.0 0.00 0.00 0.00 54 773.3
20240717053620 78 0 0.0 0.0 0.00 0.00 0.00 53 773.6
20240717052620 78 0 0.0 0.0 0.00 0.00 0.00 55 773.6
20240717051620 78 0 0.0 0.0 0.00 0.00 0.00 57 773.8
20240717050620 78 0 0.0 0.0 0.00 0.00 0.00 55 773.9
20240717045620 78 0 0.0 0.0 0.00 0.00 0.00 54 774.1
20240717044620 77 0 0.0 0.0 0.00 0.00 0.00 59 774.1
20240717043621 77 0 0.0 0.0 0.00 0.00 0.00 57 774.3
20240717042621 77 0 0.0 0.0 0.00 0.00 0.00 61 774.3
20240717041621 77 0 0.0 0.0 0.00 0.00 0.00 59 774.4
20240717040621 77 0 0.0 0.0 0.00 0.00 0.00 57 774.5
20240717035621 77 0 0.0 0.0 0.00 0.00 0.00 56 774.7
20240717034621 76 0 0.0 0.0 0.00 0.00 0.00 57 774.7
20240717033621 76 0 0.0 0.0 0.00 0.00 0.00 55 774.8
20240717032622 76 0 0.0 0.0 0.00 0.00 0.00 55 774.8
20240717031622 76 0 0.0 0.0 0.00 0.00 0.00 56 774.8
20240717030622 76 0 0.0 0.0 0.00 0.00 0.00 57 774.8
20240717025622 76 0 0.0 0.0 0.00 0.00 0.00 57 775.0
20240717024622 76 0 0.0 0.0 0.00 0.00 0.00 56 775.0
20240717023623 76 0 0.0 0.0 0.00 0.00 0.00 57 775.0
20240717022623 76 0 0.0 0.0 0.00 0.00 0.00 57 775.2
20240717021623 76 0 0.0 0.0 0.00 0.00 0.00 57 775.2
20240717020623 76 0 0.0 0.0 0.00 0.00 0.00 58 775.3
20240717015623 76 0 0.0 0.0 0.00 0.00 0.00 59 775.3
20240717014624 76 0 0.0 0.0 0.00 0.00 0.00 58 775.4
20240717013624 76 0 0.0 0.0 0.00 0.00 0.00 58 775.5
20240717012624 76 0 0.0 0.0 0.00 0.00 0.00 58 775.4
20240717011624 76 0 0.0 0.0 0.00 0.00 0.00 59 775.4
20240717010624 76 0 0.0 0.0 0.00 0.00 0.00 59 775.5
20240717005624 76 0 0.0 0.0 0.00 0.00 0.00 59 775.4
20240717004625 76 0 0.0 0.0 0.00 0.00 0.00 59 775.4
20240717003625 76 0 0.0 0.0 0.00 0.00 0.00 60 775.3
20240717002625 77 0 0.0 0.0 0.00 0.00 0.00 60 775.3
20240717001625 77 0 0.0 0.0 0.00 0.00 0.00 60 775.3
20240717000625 77 0 0.0 0.0 0.00 0.00 0.00 61 775.2
20240716235625 77 0 0.0 0.0 0.00 0.00 0.00 61 775.2
20240716234626 77 0 0.0 0.0 0.00 0.00 0.00 60 775.1
20240716233626 77 0 0.0 0.0 0.00 0.00 0.00 60 775.0
20240716232626 77 0 0.0 0.0 0.00 0.00 0.00 60 775.0
20240716231626 77 0 0.0 0.0 0.00 0.00 0.00 59 774.9
20240716230626 77 0 0.0 0.0 0.00 0.00 0.00 60 774.8
20240716225626 77 0 0.0 0.0 0.00 0.00 0.00 60 774.7
20240716224626 77 0 0.0 0.0 0.00 0.00 0.00 60 774.6
20240716223626 76 0 0.0 0.0 0.00 0.00 0.00 60 774.6
20240716222626 76 0 0.0 0.0 0.00 0.00 0.00 60 774.6
20240716221627 76 0 0.0 0.0 0.00 0.00 0.00 60 774.6
20240716220627 76 0 0.0 0.0 0.00 0.00 0.00 60 774.7
20240716215627 76 0 0.0 0.0 0.00 0.00 0.00 60 774.6
20240716214627 77 0 0.0 0.0 0.00 0.00 0.00 60 774.5
20240716213627 77 0 0.0 0.0 0.00 0.00 0.00 60 774.4
20240716212627 77 0 0.0 0.0 0.00 0.00 0.00 61 774.4
20240716211628 77 0 0.0 0.0 0.00 0.00 0.00 61 774.3
20240716210628 77 0 0.0 0.0 0.00 0.00 0.00 61 774.4
20240716205628 77 0 0.0 0.0 0.00 0.00 0.00 61 774.3
20240716204628 77 0 0.0 0.0 0.00 0.00 0.00 61 774.3
20240716203628 77 0 0.0 0.0 0.00 0.00 0.00 62 774.3
20240716202628 77 0 0.0 0.0 0.00 0.00 0.00 62 774.3
20240716201628 77 0 0.0 0.0 0.00 0.00 0.00 62 774.2
20240716200628 77 0 0.0 0.0 0.00 0.00 0.00 62 774.2
20240716195629 77 0 0.0 0.0 0.00 0.00 0.00 62 774.1
20240716194629 77 0 0.0 0.0 0.00 0.00 0.00 63 774.2
20240716193629 77 0 0.0 0.0 0.00 0.00 0.00 63 774.3
20240716192629 77 0 0.0 0.0 0.00 0.00 0.00 63 774.4
20240716191629 77 0 0.0 0.0 0.00 0.00 0.00 62 774.3
20240716190629 77 0 0.0 0.0 0.00 0.00 0.00 62 774.4
20240716185629 77 0 0.0 0.0 0.00 0.00 0.00 62 774.3
20240716184629 77 0 0.0 0.0 0.00 0.00 0.00 63 774.4
20240716183629 77 0 0.0 0.0 0.00 0.00 0.00 63 774.5
20240716182630 77 0 0.0 0.0 0.00 0.00 0.00 63 774.5
20240716181630 77 0 0.0 0.0 0.00 0.00 0.00 62 774.5
20240716180630 77 0 0.0 0.0 0.00 0.00 0.00 61 774.6
20240716175630 77 0 0.0 0.0 0.00 0.00 0.00 61 774.6
20240716174630 77 0 0.0 0.0 0.00 0.00 0.00 61 774.6
20240716173630 77 0 0.0 0.0 0.00 0.00 0.00 61 774.6
20240716172630 77 0 0.0 0.0 0.00 0.00 0.00 61 774.7
20240716171630 77 0 0.0 0.0 0.00 0.00 0.00 61 774.8
20240716170630 77 0 0.0 0.0 0.00 0.00 0.00 61 774.9
20240716165631 77 0 0.0 0.0 0.00 0.00 0.00 61 774.8
20240716164631 77 0 0.0 0.0 0.00 0.00 0.00 61 774.9
20240716163631 77 0 0.0 0.0 0.00 0.00 0.00 61 775.1
20240716162631 77 0 0.0 0.0 0.00 0.00 0.00 61 775.2
20240716161631 77 0 0.0 0.0 0.00 0.00 0.00 61 775.3
20240716160631 78 0 0.0 0.0 0.00 0.00 0.00 62 775.3
20240716155631 78 0 0.0 0.0 0.00 0.00 0.00 62 775.2
20240716154631 78 0 0.0 0.0 0.00 0.00 0.00 62 775.1
20240716153631 78 0 0.0 0.0 0.00 0.00 0.00 62 775.1
20240716152632 77 0 0.0 0.0 0.00 0.00 0.00 62 775.0
20240716151632 77 0 0.0 0.0 0.00 0.00 0.00 62 775.0
20240716150632 78 0 0.0 0.0 0.00 0.00 0.00 63 775.0
20240716145632 78 0 0.0 0.0 0.00 0.00 0.00 63 775.2
20240716144632 78 0 0.0 0.0 0.00 0.00 0.00 64 775.1
20240716143632 78 0 0.0 0.0 0.00 0.00 0.00 60 775.1
20240716142633 78 0 0.0 0.0 0.00 0.00 0.00 60 775.2
20240716141633 78 0 0.0 0.0 0.00 0.00 0.00 59 775.2
20240716140633 78 0 0.0 0.0 0.00 0.00 0.00 59 775.0
20240716135633 78 0 0.0 0.0 0.00 0.00 0.00 59 775.0
20240716134633 78 0 0.0 0.0 0.00 0.00 0.00 59 775.0
20240716133633 78 0 0.0 0.0 0.00 0.00 0.00 59 775.0
20240716132633 78 0 0.0 0.0 0.00 0.00 0.00 59 774.7
20240716131634 78 0 0.0 0.0 0.00 0.00 0.00 60 774.6
20240716130634 78 0 0.0 0.0 0.00 0.00 0.00 60 774.5
20240716125634 78 0 0.0 0.0 0.00 0.00 0.00 60 774.4
20240716124634 78 0 0.0 0.0 0.00 0.00 0.00 60 774.2
20240716123634 78 0 0.0 0.0 0.00 0.00 0.00 60 774.0
20240716122634 78 0 0.0 0.0 0.00 0.00 0.00 60 774.0
20240716121634 78 0 0.0 0.0 0.00 0.00 0.00 60 773.8
20240716120634 78 0 0.0 0.0 0.00 0.00 0.00 60 773.9
20240716115634 78 0 0.0 0.0 0.00 0.00 0.00 60 773.8
20240716114635 78 0 0.0 0.0 0.00 0.00 0.00 61 773.7
20240716113635 78 0 0.0 0.0 0.00 0.00 0.00 61 773.7
20240716112635 78 0 0.0 0.0 0.00 0.00 0.00 61 773.6
20240716111635 78 0 0.0 0.0 0.00 0.00 0.00 62 773.4
20240716110635 78 0 0.0 0.0 0.00 0.00 0.00 62 773.4
20240716105635 78 0 0.0 0.0 0.00 0.00 0.00 63 773.2
20240716104635 78 0 0.0 0.0 0.00 0.00 0.00 64 773.2
20240716103635 78 0 0.0 0.0 0.00 0.00 0.00 65 773.2
20240716102635 78 0 0.0 0.0 0.00 0.00 0.00 61 773.0
20240716101635 77 0 0.0 0.0 0.00 0.00 0.00 62 773.0
20240716100635 77 0 0.0 0.0 0.00 0.00 0.00 62 772.8
20240716095636 77 0 0.0 0.0 0.00 0.00 0.00 62 772.8